ATLAS 5 CENTAUR DEB, 44893

Orbit data source: Space-Track

ATLAS 5 CENTAUR DEB, 44893 is space debris in HEO originally from a launch on Wed, 17 Sep 2014 UTC launched from the Air Force Eastern Test Range (AFETR). Debris objects in space refer to the collection of defunct objects orbiting the Earth. Examples of debris include non-operational satellites, rocket bodies, and fragments generated from explosions, collisions, or faulty payload assembly.

Loading next visibility...
Identifier
44893, 2014-055CJ
Orbit
HEO
Country
Flag of USUS
Related business
Flag of USUnited Launch Alliance/Lockheed Martin (US)
Manufacturer
Unknown
Mission
Spacecraft
Bus & Motor
Unknown
Mass
Unknown
Launch date (UTC)
2014-09-17 (12 years ago)
Launch vehicle
Unknown
Launch site
Air Force Eastern Test Range (AFETR)
Object type
Payload
Rocket body
Debris
Shape & HBR
Unknown shape, 1.1 m
Radar Cross Section
Medium (>0.1 m² and <1 m²)

Expand to show TLE details & history
Last TLE update: 1 week ago

TLE from 1 week ago
0 ATLAS 5 CENTAUR DEB
1 44893U 14055CJ  26163.98847479 -.00000046  00000-0  00000+0 0  9997
2 44893  20.5050 129.8903 4813112 191.1629 152.4116  1.88238224 45178
Epoch: 2026-06-12T23:43Z
TLE epoch observation values (Epoch: 2026-06-12T23:43:24.221Z)
Latitude
-0.00002°
Longitude
-127.32271°
Altitude
33,951.808 km
Speed
2.32 km/s
True Right ascension
08h 39m 21s
True Declination
0° 00' 00"
Sunlit
Object was in daylight at epoch
Visualization orbit readout
Latitude
Unknown
Longitude
Unknown
Altitude
Unknown
Speed
Unknown
Apparent Right ascension
Unknown
Apparent Declination
Unknown
Sunlit
N/A
Visualization observer readout
Local Sidereal Time
21:35:41
Azimuth
Unknown
Elevation
Unknown
Doppler factor
Unknown
Orbital elements
Apogee altitude
34,668.104 km
Perigee altitude
7,994.417 km
Semi-major axis
27,709.397 km
Eccentricity
0.48131
Inclination
20.505°
RAAN
129.8903°
Arg. of periapsis
191.1629°
True anomaly
168.85096°
Mean anomaly
152.4116°
Eccentric anomaly
161.26784°
Mean motion
0.47055 °/min
Orbital period
765.07 mins
BSTAR
0
Loading maneuver chart data...
Computing Atmospheric mass density...

Documentation

Showing up to 5 results
|